H-2A R/B

Last updated on Fri Oct 24 2025 00:02:15 GMT+0000 (Coordinated Universal Time)

1 43682U 18084L 25296.47053176 .00024400 00000+0 71149-3 0 9995 2 43682 98.8816 120.2308 0029356 136.8004 223.5545 15.34941932384684
UTC large
Height (km)
Speed (km/s)
/
Latitude / Longitude
Inclination (degrees)
Orbital Period (minutes)
Azimuth
Elevation
Range (km)
Doppler Factor

Next 0 passes for location: London (51.5072 / 0.1276)

Sorry there are no passes over London.